| time (UTC) | temp F | wind direction | speed knots | gust knots | rain 1hr in | rain 24hr in | rain mn in | humidity % | barometer mb |
| 20260904191021 | 81 | 304 | 0.9 | 2.6 | 0.00 | 0.00 | 0.00 | 54 | 1007.8 |
| 20260904190523 | 81 | 354 | 0.9 | 2.6 | 0.00 | 0.00 | 0.00 | 57 | 1008.0 |
| 20260904190023 | 80 | 37 | 0.9 | 2.6 | 0.00 | 0.00 | 0.00 | 57 | 1008.2 |
| 20260904185523 | 79 | 81 | 0.0 | 1.7 | 0.00 | 0.00 | 0.00 | 61 | 1008.2 |
| 20260904185022 | 79 | 309 | 0.0 | 0.9 | 0.00 | 0.00 | 0.00 | 59 | 1008.1 |
| 20260904184522 | 80 | 345 | 0.9 | 1.7 | 0.00 | 0.00 | 0.00 | 59 | 1008.0 |
| 20260904184022 | 80 | 329 | 0.0 | 0.9 | 0.00 | 0.00 | 0.00 | 64 | 1008.1 |
| 20260904183522 | 80 | 340 | 0.0 | 1.7 | 0.00 | 0.00 | 0.00 | 58 | 1008.1 |
| 20260904183021 | 81 | 14 | 0.9 | 1.7 | 0.00 | 0.00 | 0.00 | 55 | 1008.1 |
| 20260904182522 | 81 | 11 | 0.9 | 1.7 | 0.00 | 0.00 | 0.00 | 57 | 1008.0 |
| 20260904182023 | 80 | 321 | 0.9 | 2.6 | 0.00 | 0.00 | 0.00 | 57 | 1008.1 |
| 20260904181521 | 81 | 341 | 0.9 | 1.7 | 0.00 | 0.00 | 0.00 | 58 | 1008.1 |
| 20260904181023 | 81 | 266 | 0.9 | 2.6 | 0.00 | 0.00 | 0.00 | 57 | 1008.1 |
| 20260904180522 | 81 | 339 | 0.9 | 2.6 | 0.00 | 0.00 | 0.00 | 58 | 1008.1 |
| 20260904180022 | 80 | 17 | 0.9 | 1.7 | 0.00 | 0.00 | 0.00 | 62 | 1008.1 |
| 20260904175522 | 80 | 358 | 0.0 | 2.6 | 0.00 | 0.00 | 0.00 | 59 | 1008.1 |
| 20260904175042 | 81 | 336 | 1.7 | 3.5 | 0.00 | 0.00 | 0.00 | 56 | 1008.1 |
| 20260904174522 | 82 | 355 | 0.9 | 2.6 | 0.00 | 0.00 | 0.00 | 57 | 1008.1 |
| 20260904174022 | 81 | 342 | 0.9 | 1.7 | 0.00 | 0.00 | 0.00 | 60 | 1008.0 |
| 20260904173523 | 81 | 355 | 0.9 | 2.6 | 0.00 | 0.00 | 0.00 | 58 | 1008.0 |
| 20260904173023 | 81 | 9 | 0.9 | 1.7 | 0.00 | 0.00 | 0.00 | 58 | 1008.2 |
| 20260904172522 | 81 | 55 | 0.9 | 1.7 | 0.00 | 0.00 | 0.00 | 61 | 1008.1 |
| 20260904172022 | 80 | 275 | 0.0 | 0.9 | 0.00 | 0.00 | 0.00 | 64 | 1008.5 |
| 20260904171522 | 81 | 293 | 0.0 | 1.7 | 0.00 | 0.00 | 0.00 | 60 | 1008.6 |
| 20260904171022 | 81 | 174 | 0.0 | 1.7 | 0.00 | 0.00 | 0.00 | 61 | 1008.5 |
| 20260904170522 | 80 | 24 | 0.9 | 2.6 | 0.00 | 0.00 | 0.00 | 61 | 1008.7 |
| 20260904170021 | 81 | 314 | 0.9 | 2.6 | 0.00 | 0.00 | 0.00 | 60 | 1008.5 |
| 20260904165521 | 81 | 350 | 0.9 | 1.7 | 0.00 | 0.00 | 0.00 | 61 | 1008.6 |
| 20260904165041 | 81 | 37 | 0.9 | 2.6 | 0.00 | 0.00 | 0.00 | 60 | 1008.5 |
| 20260904164520 | 80 | 50 | 0.9 | 2.6 | 0.00 | 0.00 | 0.00 | 62 | 1008.6 |
| 20260904164020 | 80 | 334 | 0.9 | 2.6 | 0.00 | 0.00 | 0.00 | 60 | 1008.7 |
| 20260904163542 | 80 | 18 | 0.9 | 3.5 | 0.00 | 0.00 | 0.00 | 61 | 1008.6 |
| 20260904163022 | 80 | 19 | 0.9 | 3.5 | 0.00 | 0.00 | 0.00 | 59 | 1008.6 |
| 20260904162522 | 80 | 349 | 0.9 | 2.6 | 0.00 | 0.00 | 0.00 | 60 | 1008.7 |
| 20260904162022 | 80 | 329 | 0.9 | 2.6 | 0.00 | 0.00 | 0.00 | 64 | 1008.8 |
| 20260904161541 | 80 | 360 | 0.9 | 3.5 | 0.00 | 0.00 | 0.00 | 61 | 1008.8 |
| 20260904161023 | 80 | 22 | 0.9 | 3.5 | 0.00 | 0.00 | 0.00 | 64 | 1009.0 |
| 20260904160523 | 79 | 351 | 0.9 | 2.6 | 0.00 | 0.00 | 0.00 | 64 | 1009.0 |
| 20260904160023 | 79 | 340 | 0.9 | 2.6 | 0.00 | 0.00 | 0.00 | 65 | 1009.0 |
| 20260904155542 | 79 | 351 | 0.9 | 2.6 | 0.00 | 0.00 | 0.00 | 65 | 1009.0 |
| 20260904155103 | 79 | 7 | 0.9 | 2.6 | 0.00 | 0.00 | 0.00 | 66 | 1009.0 |
| 20260904154522 | 79 | 75 | 0.9 | 2.6 | 0.00 | 0.00 | 0.00 | 66 | 1009.0 |
| 20260904154022 | 79 | 33 | 0.9 | 1.7 | 0.00 | 0.00 | 0.00 | 67 | 1009.1 |
| 20260904153521 | 78 | 338 | 0.9 | 1.7 | 0.00 | 0.00 | 0.00 | 70 | 1009.1 |
| 20260904153021 | 78 | 337 | 0.9 | 2.6 | 0.00 | 0.00 | 0.00 | 67 | 1009.2 |
| 20260904152523 | 78 | 353 | 0.9 | 1.7 | 0.00 | 0.00 | 0.00 | 69 | 1009.3 |
| 20260904152023 | 78 | 329 | 0.9 | 1.7 | 0.00 | 0.00 | 0.00 | 69 | 1009.3 |
| 20260904151520 | 78 | 348 | 0.9 | 2.6 | 0.00 | 0.00 | 0.00 | 70 | 1009.3 |
| 20260904151043 | 77 | 333 | 0.9 | 5.2 | 0.00 | 0.00 | 0.00 | 69 | 1009.3 |
| 20260904150522 | 77 | 345 | 0.9 | 3.5 | 0.00 | 0.00 | 0.00 | 70 | 1009.4 |
| 20260904150022 | 77 | 328 | 0.9 | 2.6 | 0.00 | 0.00 | 0.00 | 72 | 1009.3 |
| 20260904145522 | 77 | 358 | 0.9 | 5.2 | 0.00 | 0.00 | 0.00 | 70 | 1009.4 |
| 20260904145021 | 77 | 349 | 0.9 | 1.7 | 0.00 | 0.00 | 0.00 | 73 | 1009.3 |
| 20260904144526 | 77 | 2 | 0.0 | 1.7 | 0.00 | 0.00 | 0.00 | 76 | 1009.3 |
| 20260904144023 | 76 | 13 | 0.9 | 0.9 | 0.00 | 0.00 | 0.00 | 77 | 1009.4 |
| 20260904143523 | 75 | 12 | 0.0 | 0.9 | 0.00 | 0.00 | 0.00 | 76 | 1009.5 |
| 20260904143022 | 75 | 12 | 0.9 | 1.7 | 0.00 | 0.00 | 0.00 | 75 | 1009.6 |
| 20260904142522 | 74 | 356 | 0.0 | 1.7 | 0.00 | 0.00 | 0.00 | 78 | 1009.5 |
| 20260904142022 | 74 | 341 | 0.0 | 1.7 | 0.00 | 0.00 | 0.00 | 79 | 1009.5 |
| 20260904141522 | 74 | 10 | 0.9 | 1.7 | 0.00 | 0.00 | 0.00 | 80 | 1009.6 |
| 20260904141021 | 74 | 21 | 0.9 | 1.7 | 0.00 | 0.00 | 0.00 | 80 | 1009.8 |
| 20260904140521 | 74 | 273 | 0.0 | 1.7 | 0.00 | 0.00 | 0.00 | 82 | 1009.8 |
| 20260904140021 | 73 | 248 | 0.0 | 0.9 | 0.00 | 0.00 | 0.00 | 82 | 1009.7 |
| 20260904135523 | 73 | 285 | 0.0 | 1.7 | 0.00 | 0.00 | 0.00 | 84 | 1009.7 |
| 20260904135022 | 73 | 39 | 0.0 | 1.7 | 0.00 | 0.00 | 0.00 | 83 | 1009.6 |
| 20260904134522 | 72 | 357 | 0.0 | 0.9 | 0.00 | 0.00 | 0.00 | 85 | 1009.6 |
| 20260904134022 | 72 | 338 | 0.0 | 1.7 | 0.00 | 0.00 | 0.00 | 86 | 1009.7 |
| 20260904133522 | 72 | 285 | 0.0 | 1.7 | 0.00 | 0.00 | 0.00 | 86 | 1009.7 |
| 20260904133022 | 71 | 6 | 0.0 | 0.9 | 0.00 | 0.00 | 0.00 | 87 | 1009.9 |
| 20260904132521 | 71 | 54 | 0.9 | 0.9 | 0.00 | 0.00 | 0.00 | 87 | 1009.8 |
| 20260904132021 | 71 | 62 | 0.0 | 1.7 | 0.00 | 0.00 | 0.00 | 88 | 1009.9 |
| 20260904131521 | 70 | 50 | 0.0 | 0.9 | 0.00 | 0.00 | 0.00 | 90 | 1009.8 |
| 20260904131021 | 70 | 183 | 0.0 | 0.9 | 0.00 | 0.00 | 0.00 | 91 | 1009.9 |
| 20260904130523 | 69 | 194 | 0.0 | 1.7 | 0.00 | 0.00 | 0.00 | 93 | 1009.9 |
| 20260904130043 | 68 | 10 | 0.0 | 0.9 | 0.00 | 0.00 | 0.00 | 94 | 1009.9 |
| 20260904125542 | 68 | 38 | 0.0 | 0.9 | 0.00 | 0.00 | 0.00 | 95 | 1010.0 |
| 20260904125022 | 67 | 320 | 0.0 | 1.7 | 0.00 | 0.00 | 0.00 | 97 | 1010.0 |
| 20260904124522 | 67 | 207 | 0.0 | 1.7 | 0.00 | 0.00 | 0.00 | 99 | 1009.9 |
| 20260904124022 | 67 | 328 | 0.0 | 1.7 | 0.00 | 0.00 | 0.00 | 99 | 1009.9 |
| 20260904123522 | 66 | 123 | 0.9 | 1.7 | 0.00 | 0.00 | 0.00 | 99 | 1009.8 |
| 20260904123041 | 66 | 144 | 0.0 | 0.9 | 0.00 | 0.00 | 0.00 | 99 | 1010.0 |
| 20260904122541 | 66 | 144 | 0.0 | 0.9 | 0.00 | 0.00 | 0.00 | 99 | 1010.0 |
| 20260904122041 | 66 | 0.0 | 0.0 | 0.00 | 0.00 | 0.00 | 99 | 1010.0 | |
| 20260904121541 | 65 | 0.0 | 0.9 | 0.00 | 0.00 | 0.00 | 99 | 1009.9 | |
| 20260904121020 | 65 | 144 | 0.0 | 0.9 | 0.00 | 0.00 | 0.00 | 99 | 1009.9 |
| 20260904120520 | 65 | 0.0 | 0.0 | 0.00 | 0.00 | 0.00 | 99 | 1009.9 | |
| 20260904120042 | 65 | 0.0 | 0.0 | 0.00 | 0.00 | 0.00 | 99 | 1009.8 | |
| 20260904115522 | 65 | 0.0 | 0.0 | 0.00 | 0.00 | 0.00 | 99 | 1009.8 | |
| 20260904115022 | 65 | 0.0 | 0.0 | 0.00 | 0.00 | 0.00 | 99 | 1009.9 | |
| 20260904114521 | 65 | 0.0 | 0.0 | 0.00 | 0.00 | 0.00 | 99 | 1009.9 | |
| 20260904114021 | 65 | 0.0 | 0.0 | 0.00 | 0.00 | 0.00 | 99 | 1009.8 | |
| 20260904113521 | 65 | 150 | 0.0 | 0.9 | 0.00 | 0.00 | 0.00 | 99 | 1009.9 |
| 20260904113021 | 65 | 0.0 | 0.0 | 0.00 | 0.00 | 0.00 | 99 | 1009.8 | |
| 20260904112520 | 65 | 0.0 | 0.0 | 0.00 | 0.00 | 0.00 | 99 | 1009.7 | |
| 20260904112020 | 65 | 0.0 | 0.0 | 0.00 | 0.00 | 0.00 | 99 | 1009.8 | |
| 20260904111520 | 65 | 0.0 | 0.0 | 0.00 | 0.01 | 0.00 | 99 | 1009.7 | |
| 20260904111020 | 65 | 0.0 | 0.0 | 0.00 | 0.01 | 0.00 | 99 | 1009.7 | |
| 20260904110520 | 65 | 0.0 | 0.0 | 0.00 | 0.01 | 0.00 | 99 | 1009.6 | |
| 20260904110041 | 65 | 152 | 0.0 | 0.9 | 0.00 | 0.02 | 0.00 | 99 | 1009.8 |
| 20260904105521 | 65 | 0.0 | 0.0 | 0.00 | 0.02 | 0.00 | 99 | 1009.7 | |
| 20260904105021 | 65 | 151 | 0.0 | 0.9 | 0.00 | 0.03 | 0.00 | 99 | 1009.6 |
| 20260904104601 | 65 | 0.0 | 0.0 | 0.00 | 0.03 | 0.00 | 99 | 1009.7 | |
| 20260904104041 | 65 | 0.0 | 0.0 | 0.00 | 0.04 | 0.00 | 99 | 1009.6 | |
| 20260904103540 | 65 | 0.0 | 0.0 | 0.00 | 0.05 | 0.00 | 99 | 1009.6 | |
| 20260904103025 | 65 | 151 | 0.0 | 0.9 | 0.00 | 0.05 | 0.00 | 99 | 1009.4 |
| 20260904102520 | 65 | 0.0 | 0.0 | 0.00 | 0.07 | 0.00 | 99 | 1009.4 | |
| 20260904102024 | 65 | 0.0 | 0.0 | 0.00 | 0.08 | 0.00 | 99 | 1009.4 | |
| 20260904101521 | 65 | 0.0 | 0.0 | 0.00 | 0.10 | 0.00 | 99 | 1009.3 | |
| 20260904101041 | 66 | 151 | 0.0 | 0.9 | 0.00 | 0.11 | 0.00 | 99 | 1009.2 |
| 20260904100520 | 66 | 152 | 0.0 | 0.9 | 0.00 | 0.11 | 0.00 | 99 | 1009.3 |
| 20260904100021 | 66 | 0.0 | 0.0 | 0.00 | 0.11 | 0.00 | 99 | 1009.4 | |
| 20260904095520 | 66 | 0.0 | 0.0 | 0.00 | 0.11 | 0.00 | 99 | 1009.3 | |
| 20260904095020 | 66 | 0.0 | 0.0 | 0.00 | 0.12 | 0.00 | 99 | 1009.3 | |
| 20260904094520 | 66 | 0.0 | 0.0 | 0.00 | 0.12 | 0.00 | 99 | 1009.3 | |
| 20260904094020 | 66 | 0.0 | 0.0 | 0.00 | 0.13 | 0.00 | 99 | 1009.4 | |
| 20260904093520 | 66 | 0.0 | 0.0 | 0.00 | 0.13 | 0.00 | 99 | 1009.4 | |
| 20260904093021 | 66 | 0.0 | 0.0 | 0.00 | 0.13 | 0.00 | 99 | 1009.4 | |
| 20260904092521 | 66 | 0.0 | 0.0 | 0.00 | 0.13 | 0.00 | 99 | 1009.4 | |
| 20260904092021 | 66 | 0.0 | 0.0 | 0.00 | 0.13 | 0.00 | 99 | 1009.3 | |
| 20260904091601 | 66 | 0.0 | 0.0 | 0.00 | 0.13 | 0.00 | 99 | 1009.2 | |
| 20260904091020 | 66 | 0.0 | 0.0 | 0.00 | 0.13 | 0.00 | 99 | 1009.3 | |
| 20260904090520 | 66 | 0.0 | 0.0 | 0.00 | 0.13 | 0.00 | 99 | 1009.3 | |
| 20260904090020 | 66 | 0.0 | 0.0 | 0.00 | 0.13 | 0.00 | 99 | 1009.3 | |
| 20260904085540 | 66 | 0.0 | 0.0 | 0.00 | 0.13 | 0.00 | 99 | 1009.3 | |
| 20260904085019 | 66 | 0.0 | 0.0 | 0.00 | 0.13 | 0.00 | 99 | 1009.2 | |
| 20260904084521 | 66 | 0.0 | 0.0 | 0.00 | 0.13 | 0.00 | 99 | 1009.1 | |
| 20260904084021 | 66 | 0.0 | 0.9 | 0.00 | 0.13 | 0.00 | 99 | 1009.3 | |
| 20260904083521 | 66 | 152 | 0.0 | 0.9 | 0.00 | 0.16 | 0.00 | 99 | 1009.4 |
| 20260904083020 | 66 | 0.0 | 0.0 | 0.00 | 0.18 | 0.00 | 99 | 1009.4 | |
| 20260904082520 | 66 | 0.0 | 0.0 | 0.00 | 0.21 | 0.00 | 99 | 1009.4 | |
| 20260904082020 | 66 | 0.0 | 0.0 | 0.00 | 0.22 | 0.00 | 99 | 1009.4 | |
| 20260904081520 | 66 | 0.0 | 0.9 | 0.00 | 0.27 | 0.00 | 99 | 1009.5 | |
| 20260904081019 | 66 | 152 | 0.0 | 0.9 | 0.00 | 0.31 | 0.00 | 99 | 1009.6 |
| 20260904080521 | 66 | 0.0 | 0.9 | 0.00 | 0.31 | 0.00 | 99 | 1009.6 | |
| 20260904080021 | 66 | 152 | 0.0 | 0.9 | 0.00 | 0.31 | 0.00 | 99 | 1009.6 |
| 20260904075521 | 66 | 152 | 0.0 | 0.9 | 0.00 | 0.31 | 0.00 | 99 | 1009.7 |
| 20260904075021 | 66 | 152 | 0.0 | 1.7 | 0.00 | 0.31 | 0.00 | 99 | 1009.6 |
| 20260904074520 | 66 | 152 | 0.0 | 0.9 | 0.00 | 0.31 | 0.00 | 99 | 1009.7 |
| 20260904074020 | 66 | 152 | 0.0 | 0.9 | 0.00 | 0.31 | 0.00 | 99 | 1009.7 |
| 20260904073602 | 66 | 0.0 | 0.0 | 0.00 | 0.31 | 0.00 | 99 | 1009.7 | |
| 20260904073020 | 66 | 152 | 0.0 | 0.9 | 0.00 | 0.31 | 0.00 | 99 | 1009.9 |
| 20260904072519 | 66 | 152 | 0.0 | 0.9 | 0.00 | 0.31 | 0.00 | 99 | 1010.0 |
| 20260904072021 | 66 | 0.0 | 0.0 | 0.00 | 0.31 | 0.00 | 99 | 1009.9 | |
| 20260904071521 | 66 | 0.0 | 0.0 | 0.00 | 0.31 | 0.00 | 99 | 1009.8 | |
| 20260904071021 | 66 | 0.0 | 0.0 | 0.00 | 0.31 | 0.00 | 99 | 1009.8 | |
| 20260904070520 | 66 | 0.0 | 0.0 | 0.00 | 0.31 | 0.00 | 99 | 1009.8 | |
| 20260904070021 | 66 | 0.0 | 0.0 | 0.00 | 0.31 | 0.00 | 99 | 1009.8 | |
| 20260904065520 | 66 | 0.0 | 0.0 | 0.00 | 0.31 | 0.00 | 99 | 1009.8 | |
| 20260904065020 | 66 | 0.0 | 0.0 | 0.00 | 0.31 | 0.00 | 99 | 1009.8 | |
| 20260904064520 | 66 | 0.0 | 0.0 | 0.00 | 0.31 | 0.00 | 99 | 1009.9 | |
| 20260904064041 | 66 | 0.0 | 0.0 | 0.00 | 0.31 | 0.00 | 99 | 1009.9 | |
| 20260904063521 | 66 | 0.0 | 0.9 | 0.00 | 0.31 | 0.00 | 99 | 1010.0 | |
| 20260904063024 | 66 | 152 | 0.0 | 0.9 | 0.00 | 0.31 | 0.00 | 99 | 1009.9 |
| 20260904062541 | 66 | 152 | 0.0 | 0.9 | 0.00 | 0.31 | 0.00 | 99 | 1009.9 |
| 20260904062021 | 66 | 152 | 0.0 | 0.9 | 0.00 | 0.31 | 0.00 | 99 | 1009.9 |
| 20260904061520 | 66 | 0.0 | 0.0 | 0.00 | 0.31 | 0.00 | 99 | 1010.0 | |
| 20260904061040 | 66 | 0.0 | 0.0 | 0.00 | 0.31 | 0.00 | 99 | 1010.1 | |
| 20260904060519 | 66 | 0.0 | 0.9 | 0.00 | 0.31 | 0.00 | 99 | 1010.2 | |
| 20260904060021 | 66 | 152 | 0.0 | 0.9 | 0.00 | 0.31 | 0.00 | 99 | 1010.4 |
| 20260904055521 | 66 | 152 | 0.0 | 0.9 | 0.00 | 0.31 | 0.00 | 99 | 1010.6 |
| 20260904055021 | 66 | 152 | 0.0 | 0.9 | 0.00 | 0.31 | 0.00 | 99 | 1010.6 |
| 20260904054520 | 65 | 152 | 0.0 | 0.9 | 0.00 | 0.31 | 0.00 | 99 | 1010.7 |
| 20260904054020 | 65 | 0.0 | 0.9 | 0.00 | 0.31 | 0.00 | 99 | 1010.7 | |
| 20260904053520 | 65 | 152 | 0.9 | 0.9 | 0.00 | 0.31 | 0.00 | 99 | 1010.8 |
| 20260904053020 | 65 | 151 | 0.0 | 1.7 | 0.00 | 0.31 | 0.00 | 99 | 1010.9 |
| 20260904052524 | 65 | 128 | 0.9 | 1.7 | 0.00 | 0.31 | 0.00 | 99 | 1010.9 |
| 20260904052020 | 65 | 115 | 0.9 | 1.7 | 0.00 | 0.31 | 0.00 | 99 | 1010.8 |
| 20260904051522 | 65 | 88 | 0.0 | 1.7 | 0.00 | 0.31 | 0.00 | 99 | 1010.8 |
| 20260904051021 | 65 | 112 | 0.9 | 2.6 | 0.00 | 0.31 | 0.00 | 99 | 1011.0 |
| 20260904050521 | 65 | 112 | 0.0 | 0.9 | 0.00 | 0.31 | 0.00 | 99 | 1011.1 |
| 20260904050020 | 65 | 111 | 0.0 | 0.9 | 0.00 | 0.31 | 0.00 | 99 | 1011.1 |
| 20260904045540 | 65 | 0.0 | 0.0 | 0.00 | 0.31 | 0.00 | 99 | 1011.0 | |
| 20260904045020 | 65 | 111 | 0.0 | 0.9 | 0.00 | 0.31 | 0.00 | 99 | 1011.0 |
| 20260904044521 | 64 | 112 | 0.0 | 0.9 | 0.00 | 0.31 | 0.00 | 99 | 1011.0 |
| 20260904044019 | 64 | 112 | 0.0 | 0.9 | 0.00 | 0.31 | 0.00 | 99 | 1011.0 |
| 20260904043540 | 64 | 112 | 0.0 | 1.7 | 0.00 | 0.31 | 0.00 | 99 | 1011.1 |
| 20260904043021 | 64 | 124 | 0.0 | 0.9 | 0.00 | 0.31 | 0.00 | 99 | 1011.2 |
| 20260904042521 | 65 | 124 | 0.0 | 0.9 | 0.00 | 0.31 | 0.00 | 99 | 1011.2 |
| 20260904042041 | 65 | 121 | 0.0 | 0.9 | 0.00 | 0.31 | 0.00 | 99 | 1011.1 |
| 20260904041520 | 65 | 80 | 0.0 | 0.9 | 0.00 | 0.31 | 0.00 | 99 | 1011.4 |
| 20260904041020 | 65 | 80 | 0.0 | 0.9 | 0.00 | 0.31 | 0.00 | 99 | 1011.3 |
| 20260904040540 | 65 | 0.0 | 0.0 | 0.00 | 0.31 | 0.00 | 99 | 1011.2 | |
| 20260904040040 | 65 | 80 | 0.0 | 0.9 | 0.00 | 0.31 | 0.00 | 99 | 1011.2 |
| 20260904035519 | 65 | 80 | 0.0 | 0.9 | 0.00 | 0.31 | 0.31 | 99 | 1011.3 |
| 20260904035019 | 65 | 80 | 0.0 | 0.9 | 0.00 | 0.31 | 0.31 | 99 | 1011.2 |
| 20260904034521 | 65 | 0.0 | 0.0 | 0.00 | 0.31 | 0.31 | 99 | 1011.2 | |
| 20260904034021 | 65 | 0.0 | 0.0 | 0.00 | 0.31 | 0.31 | 99 | 1011.3 | |
| 20260904033520 | 65 | 0.0 | 0.0 | 0.00 | 0.31 | 0.31 | 99 | 1011.4 | |
| 20260904033020 | 65 | 0.0 | 0.0 | 0.00 | 0.31 | 0.31 | 99 | 1011.4 | |
| 20260904032520 | 65 | 0.0 | 0.0 | 0.00 | 0.31 | 0.31 | 99 | 1011.3 | |
| 20260904032020 | 65 | 0.0 | 0.0 | 0.00 | 0.31 | 0.31 | 99 | 1011.2 | |
| 20260904031520 | 65 | 0.0 | 0.0 | 0.00 | 0.31 | 0.31 | 99 | 1011.3 | |
| 20260904031021 | 66 | 0.0 | 0.0 | 0.00 | 0.31 | 0.31 | 99 | 1011.3 | |
| 20260904030521 | 66 | 0.0 | 0.0 | 0.00 | 0.31 | 0.31 | 99 | 1011.3 | |
| 20260904030021 | 66 | 0.0 | 0.0 | 0.00 | 0.31 | 0.31 | 99 | 1011.3 | |
| 20260904025521 | 66 | 0.0 | 0.0 | 0.00 | 0.31 | 0.31 | 99 | 1011.3 | |
| 20260904025020 | 66 | 0.0 | 0.0 | 0.00 | 0.31 | 0.31 | 99 | 1011.3 | |
| 20260904024520 | 66 | 0.0 | 0.0 | 0.00 | 0.31 | 0.31 | 99 | 1011.5 | |
| 20260904024020 | 66 | 0.0 | 0.0 | 0.00 | 0.31 | 0.31 | 99 | 1011.5 | |
| 20260904023540 | 66 | 0.0 | 0.0 | 0.00 | 0.31 | 0.31 | 99 | 1011.6 | |
| 20260904023020 | 66 | 0.0 | 0.0 | 0.00 | 0.31 | 0.31 | 99 | 1011.6 | |
| 20260904022521 | 66 | 0.0 | 0.0 | 0.00 | 0.31 | 0.31 | 99 | 1011.7 | |
| 20260904022021 | 66 | 0.0 | 0.0 | 0.00 | 0.31 | 0.31 | 99 | 1011.7 | |
| 20260904021521 | 66 | 0.0 | 0.0 | 0.00 | 0.31 | 0.31 | 99 | 1011.8 | |
| 20260904021021 | 66 | 0.0 | 0.0 | 0.00 | 0.31 | 0.31 | 98 | 1011.8 | |
| 20260904020520 | 66 | 0.0 | 0.0 | 0.00 | 0.31 | 0.31 | 98 | 1011.8 | |
| 20260904020020 | 66 | 0.0 | 0.0 | 0.00 | 0.31 | 0.31 | 98 | 1012.0 | |
| 20260904015522 | 66 | 0.0 | 0.0 | 0.00 | 0.31 | 0.31 | 98 | 1012.0 | |
| 20260904015022 | 66 | 0.0 | 0.0 | 0.00 | 0.31 | 0.31 | 98 | 1011.8 | |
| 20260904014521 | 67 | 0.0 | 0.0 | 0.00 | 0.31 | 0.31 | 98 | 1011.9 | |
| 20260904014021 | 67 | 0.0 | 0.0 | 0.00 | 0.31 | 0.31 | 98 | 1012.0 | |
| 20260904013541 | 67 | 0.0 | 0.0 | 0.00 | 0.31 | 0.31 | 97 | 1012.0 | |
| 20260904013041 | 67 | 0.0 | 0.0 | 0.00 | 0.31 | 0.31 | 97 | 1012.0 | |
| 20260904012541 | 67 | 0.0 | 0.0 | 0.00 | 0.31 | 0.31 | 97 | 1012.1 | |
| 20260904012020 | 67 | 0.0 | 0.0 | 0.00 | 0.31 | 0.31 | 97 | 1012.1 | |
| 20260904011621 | 67 | 0.0 | 0.0 | 0.00 | 0.31 | 0.31 | 97 | 1012.0 | |
| 20260904011020 | 67 | 0.0 | 0.0 | 0.00 | 0.31 | 0.31 | 97 | 1012.2 | |
| 20260904010520 | 67 | 0.0 | 0.0 | 0.00 | 0.31 | 0.31 | 97 | 1012.0 | |
| 20260904010020 | 67 | 0.0 | 0.0 | 0.00 | 0.31 | 0.31 | 96 | 1012.0 | |
| 20260904005521 | 67 | 0.0 | 0.0 | 0.00 | 0.31 | 0.31 | 96 | 1011.8 | |
| 20260904005021 | 68 | 0.0 | 0.0 | 0.00 | 0.31 | 0.31 | 96 | 1011.8 | |
| 20260904004522 | 68 | 0.0 | 0.0 | 0.00 | 0.31 | 0.31 | 96 | 1011.7 | |
| 20260904004020 | 68 | 0.0 | 0.0 | 0.00 | 0.31 | 0.31 | 96 | 1011.7 | |
| 20260904003520 | 68 | 80 | 0.0 | 0.9 | 0.00 | 0.31 | 0.31 | 95 | 1011.6 |
| 20260904003040 | 68 | 79 | 0.0 | 0.9 | 0.00 | 0.31 | 0.31 | 95 | 1011.5 |
| 20260904002520 | 69 | 0.0 | 0.9 | 0.00 | 0.31 | 0.31 | 94 | 1011.4 | |
| 20260904002040 | 69 | 177 | 0.0 | 0.9 | 0.00 | 0.31 | 0.31 | 94 | 1011.4 |
| 20260904001522 | 69 | 184 | 0.9 | 1.7 | 0.00 | 0.31 | 0.31 | 94 | 1011.3 |
| 20260904001021 | 69 | 193 | 0.0 | 0.9 | 0.00 | 0.31 | 0.31 | 95 | 1011.3 |
| 20260904000541 | 69 | 193 | 0.0 | 0.9 | 0.00 | 0.31 | 0.31 | 94 | 1011.3 |
| 20260904000041 | 69 | 194 | 0.0 | 0.9 | 0.00 | 0.31 | 0.31 | 94 | 1011.4 |
| 20260903235541 | 69 | 194 | 0.0 | 0.9 | 0.00 | 0.31 | 0.31 | 95 | 1011.2 |
| 20260903235020 | 69 | 0.0 | 0.0 | 0.00 | 0.31 | 0.31 | 95 | 1011.2 | |
| 20260903234520 | 69 | 0.0 | 0.0 | 0.00 | 0.31 | 0.31 | 95 | 1011.1 | |
| 20260903234019 | 70 | 194 | 0.0 | 0.9 | 0.00 | 0.31 | 0.31 | 95 | 1011.1 |
| 20260903233519 | 70 | 0.0 | 0.0 | 0.00 | 0.31 | 0.31 | 95 | 1011.1 | |
| 20260903233023 | 70 | 193 | 0.0 | 0.9 | 0.00 | 0.31 | 0.31 | 94 | 1011.1 |
| 20260903232521 | 70 | 164 | 0.0 | 1.7 | 0.00 | 0.31 | 0.31 | 94 | 1011.2 |
| 20260903232021 | 70 | 128 | 0.0 | 0.9 | 0.00 | 0.31 | 0.31 | 95 | 1011.3 |
| 20260903231621 | 71 | 0.0 | 0.0 | 0.00 | 0.31 | 0.31 | 95 | 1011.5 | |
| 20260903231025 | 71 | 127 | 0.0 | 0.9 | 0.00 | 0.31 | 0.31 | 94 | 1011.3 |
| 20260903230520 | 71 | 0.0 | 0.9 | 0.00 | 0.31 | 0.31 | 93 | 1011.1 | |
| 20260903230022 | 72 | 127 | 0.9 | 2.6 | 0.00 | 0.31 | 0.31 | 91 | 1011.1 |
| 20260903225521 | 71 | 111 | 0.0 | 2.6 | 0.00 | 0.31 | 0.31 | 93 | 1011.1 |
| 20260903225021 | 72 | 0.0 | 0.0 | 0.00 | 0.31 | 0.31 | 93 | 1011.1 | |
| 20260903224521 | 72 | 162 | 0.0 | 0.9 | 0.00 | 0.31 | 0.31 | 91 | 1011.0 |
| 20260903224021 | 71 | 170 | 0.0 | 1.7 | 0.00 | 0.31 | 0.31 | 93 | 1011.1 |
| 20260903223600 | 71 | 182 | 0.0 | 0.9 | 0.00 | 0.31 | 0.31 | 94 | 1011.3 |
| 20260903223022 | 71 | 0.0 | 0.0 | 0.00 | 0.31 | 0.31 | 93 | 1011.3 | |
| 20260903222522 | 72 | 0.0 | 0.0 | 0.00 | 0.31 | 0.31 | 93 | 1011.5 | |
| 20260903222021 | 72 | 0.0 | 0.0 | 0.00 | 0.31 | 0.31 | 93 | 1011.6 | |
| 20260903221521 | 72 | 0.0 | 0.0 | 0.00 | 0.31 | 0.31 | 92 | 1011.5 | |
| 20260903221041 | 73 | 182 | 0.0 | 0.9 | 0.00 | 0.31 | 0.31 | 90 | 1011.5 |
| 20260903220521 | 73 | 182 | 0.9 | 1.7 | 0.00 | 0.31 | 0.31 | 87 | 1011.4 |
| 20260903220021 | 73 | 155 | 0.9 | 1.7 | 0.00 | 0.31 | 0.31 | 89 | 1011.5 |
| 20260903215520 | 73 | 0.0 | 0.0 | 0.00 | 0.31 | 0.31 | 90 | 1011.6 | |
| 20260903215022 | 73 | 164 | 0.0 | 0.9 | 0.00 | 0.31 | 0.31 | 88 | 1011.5 |
| 20260903214522 | 74 | 163 | 0.0 | 1.7 | 0.00 | 0.31 | 0.31 | 84 | 1011.3 |
| 20260903214022 | 74 | 131 | 0.9 | 2.6 | 0.00 | 0.31 | 0.31 | 85 | 1011.4 |
| 20260903213521 | 73 | 111 | 1.7 | 3.5 | 0.00 | 0.31 | 0.31 | 87 | 1011.3 |
| 20260903213021 | 73 | 164 | 0.9 | 2.6 | 0.00 | 0.31 | 0.31 | 89 | 1011.4 |
| 20260903212541 | 73 | 0.0 | 0.0 | 0.00 | 0.31 | 0.31 | 88 | 1011.3 | |
| 20260903212021 | 74 | 201 | 0.0 | 0.9 | 0.00 | 0.31 | 0.31 | 87 | 1011.3 |
| 20260903211520 | 74 | 201 | 0.0 | 0.9 | 0.00 | 0.31 | 0.31 | 85 | 1011.4 |
| 20260903211020 | 74 | 192 | 0.9 | 3.5 | 0.00 | 0.31 | 0.31 | 84 | 1011.6 |
| 20260903210522 | 74 | 174 | 0.9 | 3.5 | 0.00 | 0.31 | 0.31 | 85 | 1011.4 |
| 20260903210021 | 74 | 162 | 0.0 | 1.7 | 0.00 | 0.31 | 0.31 | 84 | 1011.4 |
| 20260903205521 | 74 | 156 | 0.9 | 1.7 | 0.00 | 0.31 | 0.31 | 84 | 1011.4 |
| 20260903205042 | 74 | 152 | 0.9 | 2.6 | 0.00 | 0.31 | 0.31 | 84 | 1011.4 |
| 20260903204521 | 74 | 148 | 0.0 | 0.9 | 0.00 | 0.31 | 0.31 | 83 | 1011.4 |
| 20260903204020 | 74 | 105 | 0.0 | 0.9 | 0.00 | 0.31 | 0.31 | 83 | 1011.4 |
| 20260903203520 | 75 | 67 | 0.0 | 1.7 | 0.00 | 0.31 | 0.31 | 82 | 1011.5 |
| 20260903203020 | 75 | 70 | 0.9 | 2.6 | 0.00 | 0.31 | 0.31 | 81 | 1011.5 |
| 20260903202543 | 75 | 130 | 1.7 | 5.2 | 0.00 | 0.31 | 0.31 | 80 | 1011.4 |
| 20260903202022 | 75 | 115 | 1.7 | 3.5 | 0.00 | 0.31 | 0.31 | 81 | 1011.6 |
| 20260903201520 | 75 | 115 | 0.9 | 3.5 | 0.00 | 0.31 | 0.31 | 82 | 1011.7 |
| 20260903201021 | 74 | 141 | 0.9 | 2.6 | 0.00 | 0.31 | 0.31 | 83 | 1011.7 |
| 20260903200541 | 74 | 83 | 0.9 | 2.6 | 0.00 | 0.31 | 0.31 | 82 | 1011.8 |
| 20260903200021 | 74 | 63 | 0.9 | 1.7 | 0.00 | 0.31 | 0.31 | 82 | 1011.7 |
| 20260903195521 | 74 | 77 | 0.9 | 2.6 | 0.00 | 0.31 | 0.31 | 81 | 1011.9 |
| 20260903195020 | 74 | 101 | 1.7 | 3.5 | 0.00 | 0.31 | 0.31 | 82 | 1012.0 |
| 20260903194520 | 74 | 109 | 0.0 | 0.9 | 0.00 | 0.31 | 0.31 | 82 | 1012.1 |
| 20260903194022 | 74 | 100 | 0.9 | 3.5 | 0.00 | 0.31 | 0.31 | 82 | 1012.0 |
| 20260903193522 | 74 | 108 | 0.9 | 3.5 | 0.00 | 0.31 | 0.31 | 82 | 1012.1 |
| 20260903193021 | 74 | 108 | 0.9 | 3.5 | 0.00 | 0.31 | 0.31 | 82 | 1012.1 |
| 20260903192521 | 74 | 116 | 0.9 | 3.5 | 0.00 | 0.31 | 0.31 | 82 | 1012.2 |
| 20260903192021 | 74 | 111 | 1.7 | 3.5 | 0.00 | 0.31 | 0.31 | 83 | 1012.2 |
| 20260903191521 | 73 | 102 | 0.9 | 3.5 | 0.00 | 0.31 | 0.31 | 84 | 1012.2 |